Theta_e
310 312 313 313 313 312 311 311 312 313 313 313 314 315 315 314 316 317 316 316 316 317 316 315 314 314 313 312 311 310 309 309 309 309 309 309 309 309 308 306 305 304 304 303
311 313 312 311 310 312 312 313 313 312 312 313 313 314 314 313 313 316 316 316 315 314 315 315 314 313 312 312 310 309 308 308 308 309 309 309 308 306 304 303 302 301 301 301
315 315 310 310 311 311 312 312 312 312 312 312 312 313 313 312 313 314 315 316 316 315 314 314 313 312 311 311 310 309 308 308 308 308 308 307 305 303 302 301 301 301 301 301
311 311 312 310 311 311 313 311 312 312 311 312 310 315 315 312 311 312 314 314 314 314 313 313 313 312 311 310 309 308 308 308 308 307 307 305 303 302 301 301 301 301 301 302
313 310 310 312 313 311 314 311 312 312 312 312 312 312 317 313 312 311 313 314 314 313 313 313 313 312 311 310 309 308 307 306 306 305 303 302 301 301 300 301 301 301 301 301
310 309 310 311 310 311 311 312 312 311 312 314 314 314 318 318 314 314 313 313 313 313 311 311 311 311 311 310 309 307 305 303 302 301 301 300 300 300 301 301 301 301 301 301
314 314 311 310 313 311 311 312 315 315 315 317 314 313 317 316 314 314 315 312 313 312 311 310 310 311 310 310 308 306 303 301 300 300 300 300 300 300 301 301 300 300 300 300
314 316 313 311 312 314 312 312 317 321 320 318 312 315 316 313 313 312 312 312 313 312 311 310 309 310 310 309 308 306 303 300 300 300 300 300 300 300 300 300 300 300 299 299
314 313 310 311 312 312 313 314 314 316 316 318 317 316 316 315 315 314 313 312 312 311 310 309 307 309 309 309 307 305 302 300 300 300 300 300 300 300 300 299 299 298 298 297
311 312 310 310 310 311 313 313 316 317 320 321 319 317 319 317 316 316 315 314 312 310 309 308 307 308 309 308 307 304 302 300 300 299 300 300 300 299 298 298 297 297 297 295
313 312 311 311 310 311 311 312 314 315 318 319 317 318 316 316 315 314 314 313 312 310 308 306 305 306 308 307 305 303 301 300 299 299 299 300 300 298 297 297 296 296 294 292
310 313 313 311 310 310 311 311 311 314 317 320 318 317 316 315 315 314 314 312 311 310 309 306 305 307 307 306 304 303 301 299 299 299 299 299 298 298 297 296 296 294 293 291
309 310 308 307 309 309 310 311 310 310 312 314 315 315 313 313 312 311 312 312 309 308 305 304 303 305 306 305 305 303 301 299 299 298 299 298 298 297 296 295 295 292 290 289
308 309 308 308 307 307 309 309 309 310 311 311 311 311 311 311 311 312 312 311 309 306 304 303 302 303 305 305 305 303 300 299 298 298 298 298 297 296 294 294 293 291 289 287
308 307 306 308 308 309 308 308 308 309 309 310 309 309 310 311 310 310 310 308 305 303 302 301 300 299 302 304 303 301 300 300 299 298 298 297 296 294 294 293 291 290 287 286
306 307 305 306 307 307 307 308 308 308 309 308 309 310 310 309 308 309 309 308 306 304 302 301 301 302 303 304 303 301 300 300 301 297 296 295 294 294 293 292 290 287 285 285
304 305 307 307 306 307 309 308 308 308 308 309 310 310 309 308 308 309 309 308 308 306 304 302 302 303 304 300 302 301 299 299 297 296 295 294 294 294 293 291 288 286 285 284
302 304 305 307 307 309 306 305 307 307 308 308 309 308 308 307 307 308 308 309 308 308 307 307 304 303 304 302 300 301 299 297 297 296 296 295 293 292 292 289 286 285 283 283
304 303 304 307 308 306 306 306 307 308 306 307 308 308 308 308 307 308 308 307 308 308 308 308 309 308 306 304 301 302 300 298 296 297 295 294 293 292 292 288 285 283 282 282
304 305 305 306 307 307 306 305 307 307 308 305 307 308 308 307 310 311 306 305 305 306 307 309 310 309 306 305 303 301 299 297 296 296 295 294 293 292 289 285 283 282 281 281
305 305 306 306 307 306 304 306 305 307 306 305 306 305 307 309 308 306 305 303 303 304 305 306 308 309 310 307 305 302 299 297 297 296 295 293 292 290 287 284 283 282 282 281
299 304 307 307 308 308 303 304 306 307 303 304 304 304 304 304 305 305 303 303 304 305 305 305 305 305 305 303 301 300 299 298 297 295 293 292 291 288 285 283 282 282 282 280
302 304 304 305 307 304 301 303 305 304 304 303 303 304 304 305 304 304 302 302 302 302 303 302 301 302 300 299 299 299 298 297 297 294 292 291 290 287 284 283 282 282 280 280
301 303 304 303 304 303 301 302 303 304 303 302 304 304 305 305 304 303 302 300 299 299 300 301 301 300 298 297 297 297 297 297 295 293 292 291 289 286 283 282 282 282 281 279
298 299 304 304 303 301 302 303 304 302 302 303 304 305 304 304 304 303 302 300 297 297 297 298 298 299 297 297 297 296 296 296 295 294 291 290 287 284 282 282 282 281 280 279
296 299 304 306 304 303 302 303 302 302 303 302 302 303 304 303 301 300 299 298 298 297 297 297 297 297 297 296 295 295 295 295 294 292 290 289 285 282 282 282 281 281 280 279
Wind_Speed
6 5 9 19 16 8 2 4 10 6 7 5 11 18 16 15 17 18 23 28 32 38 35 33 31 28 25 23 20 16 13 11 10 9 8 7 5 3 1 1 2 4 5 6
3 12 17 5 10 12 11 14 17 13 14 10 19 26 20 13 15 31 32 31 35 29 37 38 35 32 29 25 22 18 16 14 13 12 10 9 7 5 3 1 1 3 4 5
15 6 6 11 9 9 12 16 11 13 8 10 13 30 24 15 25 25 32 37 41 43 44 42 40 36 32 28 23 20 18 16 15 14 13 10 8 6 3 1 2 3 4 5
11 10 9 6 8 14 12 11 16 14 6 8 3 16 16 7 17 17 29 34 41 43 44 46 44 40 35 29 25 21 19 18 17 16 14 11 8 6 4 2 1 3 4 5
5 3 8 14 13 11 8 7 10 9 8 6 11 8 19 6 11 16 20 33 38 43 50 53 51 44 36 31 26 22 21 20 19 17 15 13 11 9 6 3 3 2 3 5
6 2 3 4 3 11 2 2 1 3 3 8 10 12 28 13 16 11 20 26 30 29 35 40 44 43 38 33 29 25 24 23 21 19 16 14 11 9 7 5 4 3 5 7
10 18 9 5 8 2 5 2 3 4 5 9 9 12 22 10 10 8 12 20 28 30 34 40 45 48 43 38 33 29 26 24 22 19 17 14 13 11 8 6 5 5 5 6
1 3 5 5 13 8 9 9 5 5 4 4 3 11 10 3 6 9 11 17 19 29 37 40 42 47 46 40 35 31 29 26 22 20 18 16 13 11 9 7 5 4 4 5
1 3 1 1 6 7 3 8 14 6 8 3 5 12 20 8 5 8 9 5 17 24 30 34 36 46 47 41 37 33 29 26 23 20 18 16 13 11 9 7 6 4 4 4
3 6 5 3 2 6 6 0 1 3 4 6 7 8 13 10 12 14 11 11 13 16 25 30 35 41 45 41 36 32 28 25 23 21 19 16 13 11 10 7 5 3 2 3
3 2 3 5 1 6 6 6 6 7 4 6 12 8 3 8 7 11 14 17 16 19 22 26 29 36 42 40 36 33 29 27 25 22 19 16 14 13 10 7 5 3 2 2
4 1 4 7 13 12 12 11 5 3 3 4 6 11 14 12 11 14 20 18 14 19 23 26 30 37 45 45 40 35 31 28 25 22 20 18 16 15 11 9 6 4 2 1
1 1 5 12 4 3 5 3 2 3 4 8 9 8 14 21 22 34 24 19 16 15 18 21 28 38 47 46 42 38 34 30 26 23 21 20 18 14 13 11 8 5 3 2
1 5 7 11 15 4 6 7 5 3 4 7 10 15 24 23 17 18 21 22 19 16 20 23 27 37 47 47 42 38 35 30 27 24 22 20 18 17 15 11 8 6 3 3
3 6 5 11 16 11 11 12 16 16 19 12 22 17 22 22 12 14 15 10 10 13 18 22 25 30 43 46 43 39 36 32 27 24 24 23 21 17 14 11 8 6 6 5
2 3 5 8 13 15 13 19 22 19 23 19 22 23 16 22 15 18 13 10 12 14 17 21 27 36 45 46 43 38 37 34 31 31 29 25 21 19 15 12 10 9 7 6
5 3 3 9 5 7 10 24 19 17 17 13 11 15 12 11 12 15 18 9 13 14 15 20 30 34 42 42 44 44 37 35 33 30 27 23 19 17 16 13 11 10 9 8
14 12 8 10 7 11 10 3 10 13 19 14 18 16 17 17 21 22 21 15 15 14 16 14 20 26 37 41 39 37 38 33 33 32 27 24 20 18 15 13 12 12 11 10
19 14 8 8 11 14 18 9 7 7 18 7 15 16 20 19 17 23 18 22 22 18 16 17 18 21 33 40 38 37 36 35 35 29 29 25 20 18 16 15 14 13 11 10
16 17 11 12 13 16 8 4 8 7 10 4 5 8 11 4 4 7 13 12 13 15 15 17 19 22 28 32 35 40 40 39 36 34 30 23 18 19 17 15 15 13 12 10
4 7 18 17 15 12 7 10 10 6 5 4 2 4 6 4 7 15 19 15 14 11 11 13 21 25 20 24 34 38 39 38 35 31 26 24 21 18 16 15 14 13 12 11
11 7 4 5 9 16 9 6 9 4 6 6 5 10 13 16 16 17 15 15 11 9 9 6 13 24 25 27 32 36 34 36 34 29 28 24 21 19 18 17 16 14 13 12
11 10 4 7 5 3 9 5 13 8 4 3 7 12 15 17 15 14 12 11 10 8 6 4 4 14 20 23 26 30 34 36 32 31 28 23 20 20 19 18 16 16 15 14
8 8 7 6 14 16 17 12 15 8 7 7 8 10 13 15 14 10 9 8 7 8 5 1 3 9 15 20 23 27 29 31 32 30 26 22 23 22 21 19 16 15 15 14
8 9 12 10 10 9 15 17 12 8 7 6 9 11 13 12 9 7 6 5 5 4 4 3 6 11 15 19 21 21 26 28 28 26 24 24 24 23 22 20 17 15 12 9
13 17 8 8 11 9 5 13 8 6 4 4 9 12 12 10 8 7 5 3 2 1 3 6 9 11 14 17 19 22 25 28 29 27 26 26 25 24 23 23 21 16 10 9
Wind_Direction
184 178 200 218 206 216 201 251 263 250 260 279 261 266 255 240 210 218 212 212 211 214 210 208 206 206 206 206 206 207 208 213 218 218 212 201 199 190 164 37 10 8 5 358
147 231 222 204 201 217 231 254 263 274 267 273 280 272 258 240 219 215 215 215 218 212 215 211 208 206 206 206 204 202 204 211 210 205 209 199 193 186 182 163 33 7 2 358
234 241 225 207 207 204 220 224 244 254 303 279 282 278 262 231 229 219 221 222 225 218 215 210 208 207 205 202 202 201 206 210 206 203 203 203 197 194 192 159 50 30 20 12
252 243 218 201 221 211 245 208 234 247 261 270 214 290 262 259 226 218 219 215 219 219 219 216 210 206 205 202 199 201 204 206 203 198 200 200 204 205 195 170 80 49 35 27
241 190 206 231 243 191 263 188 211 223 226 283 237 265 272 237 235 225 223 218 218 214 217 216 214 210 204 202 201 199 199 197 195 195 195 201 207 201 193 169 115 80 55 40
263 333 177 207 241 205 154 207 167 76 184 254 226 209 279 273 239 238 229 223 222 213 209 214 215 208 204 201 200 198 195 192 191 192 194 194 196 198 186 168 139 96 58 46
252 252 230 205 247 151 192 185 221 214 194 251 170 196 246 304 299 274 258 228 220 208 207 211 211 205 203 201 198 196 193 192 190 189 189 191 193 190 177 163 145 111 77 56
195 307 165 198 229 238 207 204 234 245 212 297 215 244 251 314 317 333 256 254 216 207 211 211 210 207 202 199 197 195 192 190 188 187 188 190 189 186 175 164 138 109 78 54
303 251 33 337 231 196 209 213 238 257 259 246 258 277 285 281 290 357 339 254 216 209 207 205 202 207 201 199 196 194 191 188 189 188 188 188 186 182 176 161 142 121 81 53
10 298 304 324 7 206 242 210 92 113 253 235 242 267 256 305 296 298 293 268 243 221 210 207 206 208 202 200 195 191 193 193 190 186 186 185 185 182 172 161 154 127 84 53
43 351 297 324 317 339 292 255 235 249 230 255 269 261 235 298 313 305 298 283 253 229 213 203 201 205 200 196 194 191 192 191 189 187 185 187 187 179 175 169 165 150 110 68
25 130 291 279 282 293 258 299 327 287 263 263 278 262 279 314 334 338 320 312 282 241 223 211 207 204 198 194 191 191 192 191 192 190 187 188 184 182 178 178 178 174 151 126
86 77 317 306 154 50 60 9 146 212 244 246 265 286 320 310 318 307 298 301 289 241 212 199 199 202 199 194 192 192 191 191 192 191 192 188 187 184 184 183 180 176 166 144
290 218 217 253 269 261 268 259 258 206 252 283 266 283 288 287 313 305 289 274 253 228 210 205 204 204 200 195 194 191 191 191 192 195 194 193 189 189 186 184 177 174 174 188
218 239 230 245 258 260 254 256 260 246 257 253 271 271 264 284 297 303 322 288 246 228 202 203 202 200 199 197 194 193 193 190 193 197 198 192 191 187 189 182 180 184 191 169
319 258 206 264 253 252 246 250 256 261 259 262 261 266 263 278 284 299 307 287 251 240 222 216 208 205 202 202 197 195 195 191 195 197 192 190 185 191 189 184 184 194 185 158
274 267 245 263 230 234 246 245 245 245 244 227 228 256 277 275 290 290 298 292 270 240 236 226 222 217 205 204 201 199 199 195 193 193 190 189 191 191 192 189 189 193 182 165
239 234 251 265 248 239 252 233 227 228 247 241 257 273 273 287 281 277 264 263 269 271 258 265 240 225 212 214 211 202 203 198 197 192 192 190 190 195 192 192 193 189 173 162
213 223 241 247 241 272 285 250 211 197 278 238 254 259 273 283 296 283 279 264 272 264 272 281 275 244 225 224 213 213 209 203 198 192 196 186 189 196 198 198 190 183 173 167
216 217 220 242 249 250 264 191 168 136 275 223 223 262 280 288 275 285 328 328 297 274 251 246 249 242 227 223 217 212 208 202 196 198 192 184 189 200 196 190 184 175 168 164
214 220 222 230 240 255 202 156 155 199 255 159 180 290 288 243 260 297 308 317 306 307 294 257 236 234 233 226 218 216 211 199 200 197 190 183 186 192 189 186 179 177 170 170
252 242 249 258 236 238 175 126 202 191 188 176 293 308 309 308 296 291 305 323 331 328 331 318 237 225 224 221 215 212 203 197 198 194 190 182 185 190 188 187 178 171 171 173
244 225 270 209 228 253 218 207 203 183 186 265 311 320 317 309 303 299 309 325 339 346 357 1 233 210 209 211 213 207 202 195 191 187 189 181 186 191 188 184 178 172 173 176
264 214 223 237 244 241 241 229 226 229 275 314 316 316 315 299 291 288 297 316 338 344 338 15 198 211 199 201 206 214 203 191 187 184 183 186 190 189 187 180 180 179 177 176
269 317 243 240 262 299 247 226 222 245 285 281 302 313 300 289 275 264 274 299 320 340 301 215 188 198 201 205 207 207 198 191 186 187 187 189 191 193 186 182 181 174 171 169
252 253 237 238 230 212 239 214 219 239 243 294 288 285 288 281 276 272 259 267 302 304 275 228 197 200 202 207 203 197 195 193 190 185 190 193 190 188 186 180 174 172 180 176